Location: Unspecified
(52.4292°N, 19.3359°E)
Time: 02:51:50
(UTC+02:00)

Vanguard 1 Rocket - Pass Details

Date: 25 May 2024
Orbit: 649 x 4221 km, 34.3° (Epoch: 13 June)

Event Time Altitude Azimuth Distance (km) Brightness Sun altitude
Rises 12:43:45 0° 260° (W) 7,360 12.1 58.6°
Reaches altitude 10° 12:50:15 10° 252° (WSW) 5,730 11.8 58.6°
Maximum altitude 13:02:15 28° 202° (SSW) 3,116 11.3 58.4°
Drops below altitude 10° 13:09:33 10° 147° (SSE) 3,399 10.8 58.1°
Sets 13:12:17 0° 135° (SE) 4,019 10.9 58.0°
